Home > Weather > Toamasina > Past weeks

Flag for Madagascar Weather for the Past 2 Weeks in Toamasina, Madagascar

Now
90 °F

Scattered clouds.


Feels Like: 103 °F
Forecast: 76 / 95 °F
Wind: 9 mph from Southeast

Location: Tamatave

Current Time: Feb 11, 2016 at 4:16:20 PM

Latest Report: Feb 11, 2016 at 3:00 PM


Visibility: N/A

Pressure: 29.62 "Hg

Humidity: 67%

Dew point: 77 °F

Location of ToamasinaLocation

Historic Weather in Toamasina — Graph

°F

Toamasina Temperature Yesterday

Maximum temperature yesterday: 91 °F (at 9:00 AM)
Minimum temperature yesterday: 79 °F (at 6:00 AM)
Average temperature yesterday: 86 °F

High & Low Weather Summary for the Past Weeks

 TemperatureHumidityPressure
High91 °F (Feb 10, 9:00 AM)100% (Jan 28, 8:00 AM)29.95 "Hg (Jan 28, 8:00 AM)
Low70 °F (Feb 2, 5:00 AM)56% (Feb 11, 9:00 AM)29.53 "Hg (Feb 10, 3:00 PM)
Average81 °F84%29.80 "Hg
* Reported Jan 27 3:00 PM — Feb 11 3:00 PM, Toamasina, Weather by CustomWeather, © 2016

Note: Actual official high and low records may vary slightly from our data, if they occured in-between our weather recording intervals... More about our weather records

Advertising

Toamasina Weather History for the Previous 24 Hours

 ConditionsComfort  
Time TempWeatherWind HumidityBarometerVisibility
3:00 PM
Thu, Feb 11
90 °FScattered clouds.9 mph67%29.62 "HgN/A
2:00 PM91 °FScattered clouds.9 mph63%29.62 "HgN/A
1:00 PM91 °FScattered clouds.12 mph63%29.65 "HgN/A
12:00 PM91 °FScattered clouds.9 mph59%29.65 "HgN/A
11:00 AM91 °FScattered clouds.7 mph56%29.68 "HgN/A
10:00 AM90 °FScattered clouds.7 mph59%29.68 "HgN/A
9:00 AM91 °FScattered clouds.2 mph56%29.68 "HgN/A
8:00 AM88 °FScattered clouds.2 mph66%29.68 "HgN/A
7:00 AM82 °FScattered clouds.2 mph84%29.68 "HgN/A
6:00 AM81 °FScattered clouds.2 mph79%29.65 "HgN/A
5:00 AM79 °FPassing clouds.5 mph79%29.62 "HgN/A
4:00 AM79 °FPassing clouds.2 mph79%29.59 "HgN/A
3:00 AM81 °FPassing clouds.2 mph74%29.59 "HgN/A
2:00 AM79 °FPassing clouds.No wind89%29.59 "HgN/A
1:00 AM79 °FPassing clouds.No wind89%29.59 "HgN/A
12:00 AM79 °FPassing clouds.No wind89%29.59 "HgN/A
11:00 PM
Wed, Feb 10
82 °FPassing clouds.No wind79%29.59 "HgN/A
10:00 PM82 °FPassing clouds.No wind74%29.59 "HgN/A
9:00 PM84 °FPartly cloudy.No wind70%29.59 "HgN/A
8:00 PM86 °FPartly cloudy.5 mph66%29.56 "HgN/A
7:00 PM88 °FPartly cloudy.5 mph66%29.56 "HgN/A
6:00 PM90 °FPartly sunny.5 mph75%29.53 "HgN/A
5:00 PM90 °FPartly sunny.7 mph75%29.53 "HgN/A
4:00 PM90 °FPartly sunny.9 mph75%29.53 "HgN/A
Weather by CustomWeather, © 2016

See weather overviewHow to use our weather pages